{"data":{"norad_id":58073,"intl_designator":"2023-159A","name":"YUNHAI-1 04","alt_names":[],"object_type":"PAYLOAD","status":"ACTIVE","operator":null,"country":"PRC","launch_date":"2023-10-15","launch_site_code":"JSC","launch_vehicle":null,"mission":null,"orbit_class":"UNKNOWN","rcs_meters":null,"size_class":null,"mass_kg":null,"dimensions":null,"purposes":[],"wikipedia_slug":null,"has_3d_model":false,"image_url":null,"decayed_at":null,"tle_current":{"epoch":"2026-09-21T22:50:14.617248Z","epoch_age_seconds":111000,"freshness":"FRESH","line1":"1 58073U 23159A   26264.95155807  .00000209  00000+0  92840-4 0  9990","line2":"2 58073  98.4944 288.8134 0000289 149.2290 210.8911 14.32590458153656","mean_motion":14.32590458,"eccentricity":2.89e-5,"inclination_deg":98.4944,"raan_deg":288.8134,"arg_perigee_deg":149.229,"mean_anomaly_deg":210.8911,"bstar":9.284e-5,"rev_number":15365,"period_min":100.51721285442,"perigee_km":782.8780632401,"apogee_km":783.291981873,"semimajor_km":7161.2220225565,"source":"CELESTRAK","updated_at":"2026-09-22T09:00:26.455437Z"}}}